Regional Weather Roundup
Issued by NWS Upton, NY

Current Version | Previous Version | Text Only | Print | Product List | Glossary On
Versions: 1 2 3 4 5 6 7 8 9 10 11 12 13 14 15 16 17 18 19 20 21 22 23 24 25 26 27 28 29 30 31 32 33 34 35 36 37 38 39 40 41 42 43 44 45 46 47 48 49 50
000 ASUS41 KOKX 051204 RWROKX REGIONAL WEATHER ROUNDUP NATIONAL WEATHER SERVICE NEW YORK NY 700 AM EST FRI FEB 05 2016 NOTE: "FAIR" INDICATES FEW OR NO CLOUDS BELOW 12,000 FEET WITH NO SIGNIFICANT WEATHER AND/OR OBSTRUCTIONS TO VISIBILITY. NYZ071-072-176-178-NJZ106-104-051300- NEW YORK CITY METRO AREA CITY SKY/WX TMP DP RH WIND PRES REMARKS CENTRAL PARK SNOW 32 29 88 N10G17 30.11S VSB 1/2 WCI 24 LAGUARDIA APRT LGT SNOW 33 30 88 N21G28 30.08F VSB 3/4 WCI 21 KENNEDY INTL SNOW 33 31 92 N22 30.09R VSB 1/2 WCI 21 NEWARK/LIBERTY LGT SNOW 33 31 92 N17G26 30.10R VSB 3/4 WCI 22 BRNX BOT. GARD N/A 32 32 100 N18 30.07F WCI 20 TETERBORO HVY SNOW 32 29 88 N12G22 30.08R VSB 1/4 WCI 23 $$ NYZ177-179-078>081-051300- LONG ISLAND NEW YORK CITY SKY/WX TMP DP RH WIND PRES REMARKS FARMINGDALE LGT SNOW 33 31 92 N22G30 30.05S VSB 1 WCI 21 ISLIP SNOW 33 30 88 N20G30 30.01R VSB 1/2 WCI 21 SHIRLEY LGT SNOW 33 31 92 N14G30 30.02F VSB 1 WCI 23 RIVERHEAD N/A 32 30 93 E1 30.01F WESTHAMPTON LGT SNOW 33 31 92 N17G25 30.00S VSB 1 WCI 22 EAST HAMPTON MIX PCPN 33 32 95 NW14G26 29.97F WCI 24 MONTAUK POINT N/A 36 33 89 NW15G31 29.99R WCI 27 $$ NYZ052-065-067-051300- HUDSON VALLEY CITY SKY/WX TMP DP RH WIND PRES REMARKS WHITE PLAINS LGT SNOW 31 28 89 N20G32 30.04F VSB 3/4 WCI 19 NEWBURGH LGT SNOW 32 28 86 N12G23 30.12R WCI 23 MONTGOMERY FLURRIES 34 24 67 NE10G25 30.11R WCI 26 POUGHKEEPSIE LGT SNOW 35 23 61 N21G36 30.13R WCI 24 ALBANY CLOUDY 34 21 59 NW10 30.14R WCI 26 $$ NJZ001-105-106-008-010-013-015-019>022-104-051300- NEW JERSEY CITY SKY/WX TMP DP RH WIND PRES REMARKS NEWARK/LIBERTY LGT SNOW 33 31 92 N17G26 30.10R VSB 3/4 WCI 22 TETERBORO HVY SNOW 32 29 88 N12G22 30.08R VSB 1/4 WCI 23 CALDWELL SNOW 33 31 92 VRB5 30.09S VSB 1/2 WCI 29 MORRISTOWN LGT SNOW 32 32 100 N3 30.10R VSB 1 SOMERVILLE LGT SNOW 33 31 92 N9 30.08R VSB 1 WCI 25 SUSSEX FLURRIES 34 25 69 NE8 30.08S WCI 27 ANDOVER N/A 32 27 81 NE8 30.08S WCI 25 TRENTON LGT SNOW 33 31 92 N12G21 30.08R FOG WCI 24 MILLVILLE LGT SNOW 33 32 96 N17G25 30.08R FOG WCI 22 ATLANTIC CITY LGT SNOW 33 32 96 N15 30.07R FOG WCI 23 WRIGHTSTOWN LGT SNOW 32 32 100 NW12 30.08R FOG WCI 23 TOMS RIVER CLOUDY 34 28 80 N12G21 30.07R WCI 25 BELMAR CLOUDY 34 25 69 N12G21 30.06R WCI 25 $$ PAZ047>061-062-071-051300- EASTERN PENNSYLVANIA CITY SKY/WX TMP DP RH WIND PRES REMARKS PHILADELPHIA LGT SNOW N/A N/A N/A N17 30.13R FOG ALLENTOWN CLOUDY 37 22 54 N13 30.10R WCI 29 SCRANTON CLOUDY 33 23 66 N7 30.13R WCI 27 $$ CTZ002-004>006-009-010-012-RIZ004-006-007-MAZ004-011-015-051300- SOUTHERN NEW ENGLAND IN CT CITY SKY/WX TMP DP RH WIND PRES REMARKS BRADLEY INTL LGT SNOW 32 31 96 N8 30.07R VSB 1 WCI 25 HARTFORD LGT SNOW 33 32 96 N8 30.08R VSB 3/4 WCI 26 DANBURY LGT SNOW 31 26 82 N10 30.09R VSB 1 WCI 22 WTRBRY/OXFORD SNOW 32 21 64 N12G18 30.05R VSB 1/2 WCI 23 BRIDGEPORT SNOW 33 31 92 N15 30.05R VSB 1/2 WCI 23 MERIDEN SNOW 33 30 88 N9 30.06R VSB 1/2 WCI 25 NEW HAVEN LGT SNOW 33 31 92 N14 30.03F VSB 3/4 WCI 23 CHESTER CLOUDY 32 32 100 N15G21 30.00R VSB 1/2 WCI 22 GROTON LGT SNOW 33 33 100 N18 29.98F VSB 1 WCI 22 WILLIMANTIC LGT SNOW 34 31 88 N8 30.04S VSB 1 WCI 27 IN RI CITY SKY/WX TMP DP RH WIND PRES REMARKS PROVIDENCE LGT SNOW 33 31 92 N13 29.99R VSB 3/4 WCI 24 BLOCK ISLAND CLOUDY 36 36 100 N17G29 29.93S WCI 25 WESTERLY HVY RAIN 33 31 92 N13G24 29.96F FOG WCI 24 IN MA CITY SKY/WX TMP DP RH WIND PRES REMARKS BOSTON LGT SNOW 33 31 92 N8 30.04S FOG WCI 26 WORCESTER SNOW 31 29 92 N10 30.01R VSB 1/2 WCI 22 WESTFIELD LGT SNOW 32 30 92 N9 30.07R VSB 1 WCI 24 PROVINCETOWN RAIN 41 39 93 N23G30 29.95F NANTUCKET LGT RAIN 45 42 89 N17 29.86F FOG $$ ANZ330-335-338-340-345-350-353-355-051300- COASTAL MARINE OBSERVATIONS STATION/POSITION TIME SKY/WX TEMP WIND PRES VSBY WAVE AIR SEA DIR/SP/G HT/PER (UTC) (F) (DEG/KT/KT) (MB) (MI) (FT/S) NY HARB ENTRANCE 1050 35 44 350/ 25/ 29 1016.3 4/ 8 4S FIRE IS NOT AVBL 20S FIRE ISLAND 1050 37 45 360/ 27/ 35 1014.2 6/ 5 GREAT SOUTH BAY NOT AVBL 23SW MTP 1150 38 44 350/ 27/ 33 1013.4 6/ 5 HUDSON CANYON 1050 44 51 1011.8 8/ 6 KINGS POINT 1100 33 39 40/ 16/ 20 1018.1 EXECUTION ROCKS NOT AVBL CENTRAL LI SOUND 1100 34 360/ 17/ 21 N/A 2/ 3 EASTERN LI SOUND 1100 36 42 350/ 16/ 23 N/A ROBBINS REEF 1100 33 350/ 9/ 14 1017.5 $$ >>>>>>>>>>>>>>>>>>>>>>>>>>>> KEY <<<<<<<<<<<<<<<<<<<<<<<<<<< > < > SKY/WX - SKY CONDITION/PRESENT WEATHER < > TMP - TEMPERATURE IN FAHRENHEIT < > DP - DEWPOINT IN FAHRENHEIT < > RH - RELATIVE HUMIDITY IN PERCENT < > WIND - DIRECTION AND SPEED IN MPH < > PRES - MEAN SEA LEVEL PRESSURE IN INCHES OF HG < > WCI - WIND CHILL INDEX < > VSB - VISIBILITY IN MILES < > HX - HEAT INDEX < > TC - TEMPERATURE IN CELSIUS < > VRB - VARIABLE WIND DIRECTION < > < >>>>>>>>>>>>>>>>>>>>>>>>>>>> KEY <<<<<<<<<<<<<<<<<<<<<<<<<<<

USA.gov is the U.S. government's official web portal to all federal, state and local government web resources and services.